Tracking 30995 objects as of 5-Jul-2025
HD Live streaming from Space Station
objects crossing your sky now

DELTA 1 DEB

Track DELTA 1 DEB now!
10-day predictions


NORAD ID: 2976
Int'l Code: 1967-036C
Perigee: 1,264.0 km
Apogee: 1,416.4 km
Inclination: 102.1 °
Period: 112.3 minutes
Semi major axis: 7711 km
RCS: 0.0638 m2 (small)
Launch date: April 20, 1967
Source: United States (US)
Launch site: AIR FORCE WESTERN TEST RANGE (AFWTR)

Note: This is SATELLITE DEBRIS
Your satellite tracking list
COSMOS 252 DEB
Track 1 satellite(s)




NASA's NSSDC Master Catalog

Two Line Element Set (TLE):
1 02976U 67036C   25183.12082333 -.00000019  00000-0  13198-3 0  9993
2 02976 102.1255 307.6122 0098789  98.0545  75.9288 12.82089161722845
Source of the keplerian elements: AFSPC